Index of /20260429/WXO-DD/model_gdps/15km/12/090
Name Last modified Size Description
Parent Directory -
20260429T12Z_MSC_GDPS_AbsoluteVorticity_IsbL-0200_LatLon0.15_PT090H.grib2 2026-04-29 16:31 1.5M
20260429T12Z_MSC_GDPS_AbsoluteVorticity_IsbL-0250_LatLon0.15_PT090H.grib2 2026-04-29 16:31 1.6M
20260429T12Z_MSC_GDPS_AbsoluteVorticity_IsbL-0500_LatLon0.15_PT090H.grib2 2026-04-29 16:31 1.4M
20260429T12Z_MSC_GDPS_AbsoluteVorticity_IsbL-0700_LatLon0.15_PT090H.grib2 2026-04-29 16:31 1.3M
20260429T12Z_MSC_GDPS_AbsoluteVorticity_IsbL-0850_LatLon0.15_PT090H.grib2 2026-04-29 16:31 1.6M
20260429T12Z_MSC_GDPS_AirTemp-Max_AGL-2m_LatLon0.15_PT090H.grib2 2026-04-29 16:31 744K
20260429T12Z_MSC_GDPS_AirTemp-Min_AGL-2m_LatLon0.15_PT090H.grib2 2026-04-29 16:31 787K
20260429T12Z_MSC_GDPS_AirTemp_AGL-120m_LatLon0.15_PT090H.grib2 2026-04-29 16:31 906K
20260429T12Z_MSC_GDPS_AirTemp_AGL-2m_LatLon0.15_PT090H.grib2 2026-04-29 16:31 1.0M
20260429T12Z_MSC_GDPS_AirTemp_AGL-40m_LatLon0.15_PT090H.grib2 2026-04-29 16:31 808K
20260429T12Z_MSC_GDPS_AirTemp_AGL-80m_LatLon0.15_PT090H.grib2 2026-04-29 16:31 914K
20260429T12Z_MSC_GDPS_AirTemp_IsbL-0001_LatLon0.15_PT090H.grib2 2026-04-29 16:31 716K
20260429T12Z_MSC_GDPS_AirTemp_IsbL-0005_LatLon0.15_PT090H.grib2 2026-04-29 16:31 688K
20260429T12Z_MSC_GDPS_AirTemp_IsbL-0010_LatLon0.15_PT090H.grib2 2026-04-29 16:31 694K
20260429T12Z_MSC_GDPS_AirTemp_IsbL-0020_LatLon0.15_PT090H.grib2 2026-04-29 16:31 784K
20260429T12Z_MSC_GDPS_AirTemp_IsbL-0030_LatLon0.15_PT090H.grib2 2026-04-29 16:31 751K
20260429T12Z_MSC_GDPS_AirTemp_IsbL-0050_LatLon0.15_PT090H.grib2 2026-04-29 16:31 810K
20260429T12Z_MSC_GDPS_AirTemp_IsbL-0100_LatLon0.15_PT090H.grib2 2026-04-29 16:31 965K
20260429T12Z_MSC_GDPS_AirTemp_IsbL-0150_LatLon0.15_PT090H.grib2 2026-04-29 16:31 1.0M
20260429T12Z_MSC_GDPS_AirTemp_IsbL-0175_LatLon0.15_PT090H.grib2 2026-04-29 16:31 961K
20260429T12Z_MSC_GDPS_AirTemp_IsbL-0200_LatLon0.15_PT090H.grib2 2026-04-29 16:31 1.0M
20260429T12Z_MSC_GDPS_AirTemp_IsbL-0225_LatLon0.15_PT090H.grib2 2026-04-29 16:31 1.0M
20260429T12Z_MSC_GDPS_AirTemp_IsbL-0250_LatLon0.15_PT090H.grib2 2026-04-29 16:31 1.0M
20260429T12Z_MSC_GDPS_AirTemp_IsbL-0275_LatLon0.15_PT090H.grib2 2026-04-29 16:31 1.0M
20260429T12Z_MSC_GDPS_AirTemp_IsbL-0300_LatLon0.15_PT090H.grib2 2026-04-29 16:31 1.0M
20260429T12Z_MSC_GDPS_AirTemp_IsbL-0350_LatLon0.15_PT090H.grib2 2026-04-29 16:31 923K
20260429T12Z_MSC_GDPS_AirTemp_IsbL-0400_LatLon0.15_PT090H.grib2 2026-04-29 16:31 940K
20260429T12Z_MSC_GDPS_AirTemp_IsbL-0450_LatLon0.15_PT090H.grib2 2026-04-29 16:31 964K
20260429T12Z_MSC_GDPS_AirTemp_IsbL-0500_LatLon0.15_PT090H.grib2 2026-04-29 16:31 1.0M
20260429T12Z_MSC_GDPS_AirTemp_IsbL-0550_LatLon0.15_PT090H.grib2 2026-04-29 16:31 1.0M
20260429T12Z_MSC_GDPS_AirTemp_IsbL-0600_LatLon0.15_PT090H.grib2 2026-04-29 16:31 892K
20260429T12Z_MSC_GDPS_AirTemp_IsbL-0650_LatLon0.15_PT090H.grib2 2026-04-29 16:31 916K
20260429T12Z_MSC_GDPS_AirTemp_IsbL-0700_LatLon0.15_PT090H.grib2 2026-04-29 16:31 951K
20260429T12Z_MSC_GDPS_AirTemp_IsbL-0750_LatLon0.15_PT090H.grib2 2026-04-29 16:31 1.0M
20260429T12Z_MSC_GDPS_AirTemp_IsbL-0800_LatLon0.15_PT090H.grib2 2026-04-29 16:31 1.1M
20260429T12Z_MSC_GDPS_AirTemp_IsbL-0850_LatLon0.15_PT090H.grib2 2026-04-29 16:31 1.1M
20260429T12Z_MSC_GDPS_AirTemp_IsbL-0875_LatLon0.15_PT090H.grib2 2026-04-29 16:31 1.2M
20260429T12Z_MSC_GDPS_AirTemp_IsbL-0900_LatLon0.15_PT090H.grib2 2026-04-29 16:31 1.1M
20260429T12Z_MSC_GDPS_AirTemp_IsbL-0925_LatLon0.15_PT090H.grib2 2026-04-29 16:31 1.1M
20260429T12Z_MSC_GDPS_AirTemp_IsbL-0950_LatLon0.15_PT090H.grib2 2026-04-29 16:31 1.1M
20260429T12Z_MSC_GDPS_AirTemp_IsbL-0970_LatLon0.15_PT090H.grib2 2026-04-29 16:31 1.1M
20260429T12Z_MSC_GDPS_AirTemp_IsbL-0985_LatLon0.15_PT090H.grib2 2026-04-29 16:31 1.1M
20260429T12Z_MSC_GDPS_AirTemp_IsbL-1000_LatLon0.15_PT090H.grib2 2026-04-29 16:31 1.1M
20260429T12Z_MSC_GDPS_AirTemp_IsbL-1015_LatLon0.15_PT090H.grib2 2026-04-29 16:31 1.1M
20260429T12Z_MSC_GDPS_Albedo_Sfc_LatLon0.15_PT090H.grib2 2026-04-29 16:31 244K
20260429T12Z_MSC_GDPS_CAPE_Sfc_LatLon0.15_PT090H.grib2 2026-04-29 16:31 3.8M
20260429T12Z_MSC_GDPS_CIN_Sfc_LatLon0.15_PT090H.grib2 2026-04-29 16:31 2.9M
20260429T12Z_MSC_GDPS_CloudWater_EAtm_LatLon0.15_PT090H.grib2 2026-04-29 16:31 531K
20260429T12Z_MSC_GDPS_ConvectivePrecip-Accum_Sfc_LatLon0.15_PT090H.grib2 2026-04-29 16:31 3.3M
20260429T12Z_MSC_GDPS_DewPointDepression_AGL-2m_LatLon0.15_PT090H.grib2 2026-04-29 16:31 601K
20260429T12Z_MSC_GDPS_DewPointDepression_IsbL-0010_LatLon0.15_PT090H.grib2 2026-04-29 16:31 67K
20260429T12Z_MSC_GDPS_DewPointDepression_IsbL-0020_LatLon0.15_PT090H.grib2 2026-04-29 16:31 69K
20260429T12Z_MSC_GDPS_DewPointDepression_IsbL-0030_LatLon0.15_PT090H.grib2 2026-04-29 16:31 84K
20260429T12Z_MSC_GDPS_DewPointDepression_IsbL-0050_LatLon0.15_PT090H.grib2 2026-04-29 16:31 374K
20260429T12Z_MSC_GDPS_DewPointDepression_IsbL-0100_LatLon0.15_PT090H.grib2 2026-04-29 16:31 409K
20260429T12Z_MSC_GDPS_DewPointDepression_IsbL-0150_LatLon0.15_PT090H.grib2 2026-04-29 16:31 471K
20260429T12Z_MSC_GDPS_DewPointDepression_IsbL-0175_LatLon0.15_PT090H.grib2 2026-04-29 16:31 586K
20260429T12Z_MSC_GDPS_DewPointDepression_IsbL-0200_LatLon0.15_PT090H.grib2 2026-04-29 16:31 688K
20260429T12Z_MSC_GDPS_DewPointDepression_IsbL-0225_LatLon0.15_PT090H.grib2 2026-04-29 16:31 774K
20260429T12Z_MSC_GDPS_DewPointDepression_IsbL-0250_LatLon0.15_PT090H.grib2 2026-04-29 16:31 852K
20260429T12Z_MSC_GDPS_DewPointDepression_IsbL-0275_LatLon0.15_PT090H.grib2 2026-04-29 16:31 873K
20260429T12Z_MSC_GDPS_DewPointDepression_IsbL-0300_LatLon0.15_PT090H.grib2 2026-04-29 16:31 912K
20260429T12Z_MSC_GDPS_DewPointDepression_IsbL-0350_LatLon0.15_PT090H.grib2 2026-04-29 16:31 944K
20260429T12Z_MSC_GDPS_DewPointDepression_IsbL-0400_LatLon0.15_PT090H.grib2 2026-04-29 16:31 1.0M
20260429T12Z_MSC_GDPS_DewPointDepression_IsbL-0450_LatLon0.15_PT090H.grib2 2026-04-29 16:31 1.0M
20260429T12Z_MSC_GDPS_DewPointDepression_IsbL-0500_LatLon0.15_PT090H.grib2 2026-04-29 16:31 1.0M
20260429T12Z_MSC_GDPS_DewPointDepression_IsbL-0550_LatLon0.15_PT090H.grib2 2026-04-29 16:31 1.0M
20260429T12Z_MSC_GDPS_DewPointDepression_IsbL-0600_LatLon0.15_PT090H.grib2 2026-04-29 16:31 1.0M
20260429T12Z_MSC_GDPS_DewPointDepression_IsbL-0650_LatLon0.15_PT090H.grib2 2026-04-29 16:31 1.1M
20260429T12Z_MSC_GDPS_DewPointDepression_IsbL-0700_LatLon0.15_PT090H.grib2 2026-04-29 16:31 1.1M
20260429T12Z_MSC_GDPS_DewPointDepression_IsbL-0750_LatLon0.15_PT090H.grib2 2026-04-29 16:31 1.1M
20260429T12Z_MSC_GDPS_DewPointDepression_IsbL-0800_LatLon0.15_PT090H.grib2 2026-04-29 16:31 1.2M
20260429T12Z_MSC_GDPS_DewPointDepression_IsbL-0850_LatLon0.15_PT090H.grib2 2026-04-29 16:31 1.2M
20260429T12Z_MSC_GDPS_DewPointDepression_IsbL-0875_LatLon0.15_PT090H.grib2 2026-04-29 16:31 1.1M
20260429T12Z_MSC_GDPS_DewPointDepression_IsbL-0900_LatLon0.15_PT090H.grib2 2026-04-29 16:31 1.1M
20260429T12Z_MSC_GDPS_DewPointDepression_IsbL-0925_LatLon0.15_PT090H.grib2 2026-04-29 16:31 1.0M
20260429T12Z_MSC_GDPS_DewPointDepression_IsbL-0950_LatLon0.15_PT090H.grib2 2026-04-29 16:31 1.0M
20260429T12Z_MSC_GDPS_DewPointDepression_IsbL-0970_LatLon0.15_PT090H.grib2 2026-04-29 16:31 1.0M
20260429T12Z_MSC_GDPS_DewPointDepression_IsbL-0985_LatLon0.15_PT090H.grib2 2026-04-29 16:31 1.0M
20260429T12Z_MSC_GDPS_DewPointDepression_IsbL-1000_LatLon0.15_PT090H.grib2 2026-04-29 16:31 972K
20260429T12Z_MSC_GDPS_DewPointDepression_IsbL-1015_LatLon0.15_PT090H.grib2 2026-04-29 16:31 914K
20260429T12Z_MSC_GDPS_DewPoint_AGL-2m_LatLon0.15_PT090H.grib2 2026-04-29 16:31 606K
20260429T12Z_MSC_GDPS_DownwardLongwaveRadiationFlux-Accum_Sfc_LatLon0.15_PT090H.grib2 2026-04-29 16:31 710K
20260429T12Z_MSC_GDPS_DownwardShortwaveRadiationFlux-Accum_NTAtm_LatLon0.15_PT090H.grib2 2026-04-29 16:31 265K
20260429T12Z_MSC_GDPS_DownwardShortwaveRadiationFlux-Accum_Sfc_LatLon0.15_PT090H.grib2 2026-04-29 16:31 926K
20260429T12Z_MSC_GDPS_FreezingRain-Accum12h_Sfc_LatLon0.15_PT090H.grib2 2026-04-29 16:31 86K
20260429T12Z_MSC_GDPS_FreezingRain-Accum1h_Sfc_LatLon0.15_PT090H.grib2 2026-04-29 16:31 32K
20260429T12Z_MSC_GDPS_FreezingRain-Accum24h_Sfc_LatLon0.15_PT090H.grib2 2026-04-29 16:31 139K
20260429T12Z_MSC_GDPS_FreezingRain-Accum3h_Sfc_LatLon0.15_PT090H.grib2 2026-04-29 16:31 36K
20260429T12Z_MSC_GDPS_FreezingRain-Accum6h_Sfc_LatLon0.15_PT090H.grib2 2026-04-29 16:31 56K
20260429T12Z_MSC_GDPS_FreezingRain-Accum_Sfc_LatLon0.15_PT090H.grib2 2026-04-29 16:31 353K
20260429T12Z_MSC_GDPS_GeopotentialHeight_IsbL-0001_LatLon0.15_PT090H.grib2 2026-04-29 16:31 422K
20260429T12Z_MSC_GDPS_GeopotentialHeight_IsbL-0005_LatLon0.15_PT090H.grib2 2026-04-29 16:31 487K
20260429T12Z_MSC_GDPS_GeopotentialHeight_IsbL-0010_LatLon0.15_PT090H.grib2 2026-04-29 16:31 478K
20260429T12Z_MSC_GDPS_GeopotentialHeight_IsbL-0020_LatLon0.15_PT090H.grib2 2026-04-29 16:31 412K
20260429T12Z_MSC_GDPS_GeopotentialHeight_IsbL-0030_LatLon0.15_PT090H.grib2 2026-04-29 16:31 570K
20260429T12Z_MSC_GDPS_GeopotentialHeight_IsbL-0050_LatLon0.15_PT090H.grib2 2026-04-29 16:31 567K
20260429T12Z_MSC_GDPS_GeopotentialHeight_IsbL-0100_LatLon0.15_PT090H.grib2 2026-04-29 16:31 605K
20260429T12Z_MSC_GDPS_GeopotentialHeight_IsbL-0150_LatLon0.15_PT090H.grib2 2026-04-29 16:31 623K
20260429T12Z_MSC_GDPS_GeopotentialHeight_IsbL-0175_LatLon0.15_PT090H.grib2 2026-04-29 16:31 626K
20260429T12Z_MSC_GDPS_GeopotentialHeight_IsbL-0200_LatLon0.15_PT090H.grib2 2026-04-29 16:31 629K
20260429T12Z_MSC_GDPS_GeopotentialHeight_IsbL-0225_LatLon0.15_PT090H.grib2 2026-04-29 16:31 626K
20260429T12Z_MSC_GDPS_GeopotentialHeight_IsbL-0250_LatLon0.15_PT090H.grib2 2026-04-29 16:31 636K
20260429T12Z_MSC_GDPS_GeopotentialHeight_IsbL-0275_LatLon0.15_PT090H.grib2 2026-04-29 16:31 635K
20260429T12Z_MSC_GDPS_GeopotentialHeight_IsbL-0300_LatLon0.15_PT090H.grib2 2026-04-29 16:31 628K
20260429T12Z_MSC_GDPS_GeopotentialHeight_IsbL-0350_LatLon0.15_PT090H.grib2 2026-04-29 16:31 625K
20260429T12Z_MSC_GDPS_GeopotentialHeight_IsbL-0400_LatLon0.15_PT090H.grib2 2026-04-29 16:31 614K
20260429T12Z_MSC_GDPS_GeopotentialHeight_IsbL-0450_LatLon0.15_PT090H.grib2 2026-04-29 16:31 605K
20260429T12Z_MSC_GDPS_GeopotentialHeight_IsbL-0500_LatLon0.15_PT090H.grib2 2026-04-29 16:31 596K
20260429T12Z_MSC_GDPS_GeopotentialHeight_IsbL-0550_LatLon0.15_PT090H.grib2 2026-04-29 16:31 523K
20260429T12Z_MSC_GDPS_GeopotentialHeight_IsbL-0600_LatLon0.15_PT090H.grib2 2026-04-29 16:31 519K
20260429T12Z_MSC_GDPS_GeopotentialHeight_IsbL-0650_LatLon0.15_PT090H.grib2 2026-04-29 16:31 685K
20260429T12Z_MSC_GDPS_GeopotentialHeight_IsbL-0700_LatLon0.15_PT090H.grib2 2026-04-29 16:31 686K
20260429T12Z_MSC_GDPS_GeopotentialHeight_IsbL-0750_LatLon0.15_PT090H.grib2 2026-04-29 16:31 692K
20260429T12Z_MSC_GDPS_GeopotentialHeight_IsbL-0800_LatLon0.15_PT090H.grib2 2026-04-29 16:31 703K
20260429T12Z_MSC_GDPS_GeopotentialHeight_IsbL-0850_LatLon0.15_PT090H.grib2 2026-04-29 16:31 715K
20260429T12Z_MSC_GDPS_GeopotentialHeight_IsbL-0875_LatLon0.15_PT090H.grib2 2026-04-29 16:31 721K
20260429T12Z_MSC_GDPS_GeopotentialHeight_IsbL-0900_LatLon0.15_PT090H.grib2 2026-04-29 16:31 726K
20260429T12Z_MSC_GDPS_GeopotentialHeight_IsbL-0925_LatLon0.15_PT090H.grib2 2026-04-29 16:31 736K
20260429T12Z_MSC_GDPS_GeopotentialHeight_IsbL-0950_LatLon0.15_PT090H.grib2 2026-04-29 16:31 743K
20260429T12Z_MSC_GDPS_GeopotentialHeight_IsbL-0970_LatLon0.15_PT090H.grib2 2026-04-29 16:31 753K
20260429T12Z_MSC_GDPS_GeopotentialHeight_IsbL-0985_LatLon0.15_PT090H.grib2 2026-04-29 16:31 769K
20260429T12Z_MSC_GDPS_GeopotentialHeight_IsbL-1000_LatLon0.15_PT090H.grib2 2026-04-29 16:31 788K
20260429T12Z_MSC_GDPS_GeopotentialHeight_IsbL-1015_LatLon0.15_PT090H.grib2 2026-04-29 16:31 810K
20260429T12Z_MSC_GDPS_Humidex_Sfc_LatLon0.15_PT090H.grib2 2026-04-29 16:31 5.3M
20260429T12Z_MSC_GDPS_IcePellets-Accum12h_Sfc_LatLon0.15_PT090H.grib2 2026-04-29 16:31 12K
20260429T12Z_MSC_GDPS_IcePellets-Accum1h_Sfc_LatLon0.15_PT090H.grib2 2026-04-29 16:31 6.5K
20260429T12Z_MSC_GDPS_IcePellets-Accum24h_Sfc_LatLon0.15_PT090H.grib2 2026-04-29 16:31 15K
20260429T12Z_MSC_GDPS_IcePellets-Accum3h_Sfc_LatLon0.15_PT090H.grib2 2026-04-29 16:31 7.2K
20260429T12Z_MSC_GDPS_IcePellets-Accum6h_Sfc_LatLon0.15_PT090H.grib2 2026-04-29 16:31 10K
20260429T12Z_MSC_GDPS_IcePellets-Accum_Sfc_LatLon0.15_PT090H.grib2 2026-04-29 16:31 58K
20260429T12Z_MSC_GDPS_KIndex_Sfc_LatLon0.15_PT090H.grib2 2026-04-29 16:31 6.5M
20260429T12Z_MSC_GDPS_LatentHeatNetFlux_Sfc_LatLon0.15_PT090H.grib2 2026-04-29 16:31 543K
20260429T12Z_MSC_GDPS_LiftedIndex-MU-VT_IsbL-0500_LatLon0.15_PT090H.grib2 2026-04-29 16:31 5.4M
20260429T12Z_MSC_GDPS_NetLongwaveRadiationFlux-Accum_Sfc_LatLon0.15_PT090H.grib2 2026-04-29 16:31 944K
20260429T12Z_MSC_GDPS_NetShortwaveRadiationFlux-Accum_Sfc_LatLon0.15_PT090H.grib2 2026-04-29 16:31 912K
20260429T12Z_MSC_GDPS_O3MixingRatio_Sfc_LatLon0.15_PT090H.grib2 2026-04-29 16:51 1.9M
20260429T12Z_MSC_GDPS_O3_EAtm_LatLon0.15_PT090H.grib2 2026-04-29 16:51 2.4M
20260429T12Z_MSC_GDPS_PlanetaryBoundaryLayerHeight_Sfc_LatLon0.15_PT090H.grib2 2026-04-29 16:31 2.5M
20260429T12Z_MSC_GDPS_Precip-Accum12h_Sfc_LatLon0.15_PT090H.grib2 2026-04-29 16:31 4.0M
20260429T12Z_MSC_GDPS_Precip-Accum1h_Sfc_LatLon0.15_PT090H.grib2 2026-04-29 16:31 3.2M
20260429T12Z_MSC_GDPS_Precip-Accum24h_Sfc_LatLon0.15_PT090H.grib2 2026-04-29 16:31 4.5M
20260429T12Z_MSC_GDPS_Precip-Accum3h_Sfc_LatLon0.15_PT090H.grib2 2026-04-29 16:31 3.5M
20260429T12Z_MSC_GDPS_Precip-Accum6h_Sfc_LatLon0.15_PT090H.grib2 2026-04-29 16:31 3.5M
20260429T12Z_MSC_GDPS_Precip-Accum_Sfc_LatLon0.15_PT090H.grib2 2026-04-29 16:31 5.3M
20260429T12Z_MSC_GDPS_PrecipRate_Sfc_LatLon0.15_PT090H.grib2 2026-04-29 16:31 3.0M
20260429T12Z_MSC_GDPS_PrecipType-Instant_Sfc_LatLon0.15_PT090H.grib2 2026-04-29 16:31 1.6M
20260429T12Z_MSC_GDPS_Pressure_MSL_LatLon0.15_PT090H.grib2 2026-04-29 16:31 833K
20260429T12Z_MSC_GDPS_Pressure_PVU-1.5_LatLon0.15_PT090H.grib2 2026-04-29 16:31 5.8M
20260429T12Z_MSC_GDPS_Pressure_PVU-1_LatLon0.15_PT090H.grib2 2026-04-29 16:31 6.0M
20260429T12Z_MSC_GDPS_Pressure_PVU-2_LatLon0.15_PT090H.grib2 2026-04-29 16:31 5.6M
20260429T12Z_MSC_GDPS_Pressure_Sfc_LatLon0.15_PT090H.grib2 2026-04-29 16:31 1.1M
20260429T12Z_MSC_GDPS_RadiativeTemp_Sfc_LatLon0.15_PT090H.grib2 2026-04-29 16:31 496K
20260429T12Z_MSC_GDPS_Rain-Accum12h_Sfc_LatLon0.15_PT090H.grib2 2026-04-29 16:31 2.6M
20260429T12Z_MSC_GDPS_Rain-Accum1h_Sfc_LatLon0.15_PT090H.grib2 2026-04-29 16:31 1.6M
20260429T12Z_MSC_GDPS_Rain-Accum24h_Sfc_LatLon0.15_PT090H.grib2 2026-04-29 16:31 3.2M
20260429T12Z_MSC_GDPS_Rain-Accum3h_Sfc_LatLon0.15_PT090H.grib2 2026-04-29 16:31 1.6M
20260429T12Z_MSC_GDPS_Rain-Accum6h_Sfc_LatLon0.15_PT090H.grib2 2026-04-29 16:31 2.2M
20260429T12Z_MSC_GDPS_Rain-Accum_Sfc_LatLon0.15_PT090H.grib2 2026-04-29 16:31 4.1M
20260429T12Z_MSC_GDPS_RelativeHumidity_AGL-2m_LatLon0.15_PT090H.grib2 2026-04-29 16:31 1.0M
20260429T12Z_MSC_GDPS_RelativeHumidity_IsbL-0010_LatLon0.15_PT090H.grib2 2026-04-29 16:31 142K
20260429T12Z_MSC_GDPS_RelativeHumidity_IsbL-0020_LatLon0.15_PT090H.grib2 2026-04-29 16:31 165K
20260429T12Z_MSC_GDPS_RelativeHumidity_IsbL-0030_LatLon0.15_PT090H.grib2 2026-04-29 16:31 266K
20260429T12Z_MSC_GDPS_RelativeHumidity_IsbL-0050_LatLon0.15_PT090H.grib2 2026-04-29 16:31 421K
20260429T12Z_MSC_GDPS_RelativeHumidity_IsbL-0100_LatLon0.15_PT090H.grib2 2026-04-29 16:31 507K
20260429T12Z_MSC_GDPS_RelativeHumidity_IsbL-0150_LatLon0.15_PT090H.grib2 2026-04-29 16:31 663K
20260429T12Z_MSC_GDPS_RelativeHumidity_IsbL-0175_LatLon0.15_PT090H.grib2 2026-04-29 16:31 786K
20260429T12Z_MSC_GDPS_RelativeHumidity_IsbL-0200_LatLon0.15_PT090H.grib2 2026-04-29 16:31 707K
20260429T12Z_MSC_GDPS_RelativeHumidity_IsbL-0225_LatLon0.15_PT090H.grib2 2026-04-29 16:31 787K
20260429T12Z_MSC_GDPS_RelativeHumidity_IsbL-0250_LatLon0.15_PT090H.grib2 2026-04-29 16:31 854K
20260429T12Z_MSC_GDPS_RelativeHumidity_IsbL-0275_LatLon0.15_PT090H.grib2 2026-04-29 16:31 878K
20260429T12Z_MSC_GDPS_RelativeHumidity_IsbL-0300_LatLon0.15_PT090H.grib2 2026-04-29 16:31 921K
20260429T12Z_MSC_GDPS_RelativeHumidity_IsbL-0350_LatLon0.15_PT090H.grib2 2026-04-29 16:31 941K
20260429T12Z_MSC_GDPS_RelativeHumidity_IsbL-0400_LatLon0.15_PT090H.grib2 2026-04-29 16:31 968K
20260429T12Z_MSC_GDPS_RelativeHumidity_IsbL-0450_LatLon0.15_PT090H.grib2 2026-04-29 16:31 1.0M
20260429T12Z_MSC_GDPS_RelativeHumidity_IsbL-0500_LatLon0.15_PT090H.grib2 2026-04-29 16:31 1.0M
20260429T12Z_MSC_GDPS_RelativeHumidity_IsbL-0550_LatLon0.15_PT090H.grib2 2026-04-29 16:31 1.0M
20260429T12Z_MSC_GDPS_RelativeHumidity_IsbL-0600_LatLon0.15_PT090H.grib2 2026-04-29 16:31 1.1M
20260429T12Z_MSC_GDPS_RelativeHumidity_IsbL-0650_LatLon0.15_PT090H.grib2 2026-04-29 16:31 1.1M
20260429T12Z_MSC_GDPS_RelativeHumidity_IsbL-0700_LatLon0.15_PT090H.grib2 2026-04-29 16:31 1.1M
20260429T12Z_MSC_GDPS_RelativeHumidity_IsbL-0750_LatLon0.15_PT090H.grib2 2026-04-29 16:31 1.2M
20260429T12Z_MSC_GDPS_RelativeHumidity_IsbL-0800_LatLon0.15_PT090H.grib2 2026-04-29 16:31 1.2M
20260429T12Z_MSC_GDPS_RelativeHumidity_IsbL-0850_LatLon0.15_PT090H.grib2 2026-04-29 16:31 1.3M
20260429T12Z_MSC_GDPS_RelativeHumidity_IsbL-0875_LatLon0.15_PT090H.grib2 2026-04-29 16:31 1.3M
20260429T12Z_MSC_GDPS_RelativeHumidity_IsbL-0900_LatLon0.15_PT090H.grib2 2026-04-29 16:31 1.3M
20260429T12Z_MSC_GDPS_RelativeHumidity_IsbL-0925_LatLon0.15_PT090H.grib2 2026-04-29 16:31 1.2M
20260429T12Z_MSC_GDPS_RelativeHumidity_IsbL-0950_LatLon0.15_PT090H.grib2 2026-04-29 16:31 1.2M
20260429T12Z_MSC_GDPS_RelativeHumidity_IsbL-0970_LatLon0.15_PT090H.grib2 2026-04-29 16:31 1.2M
20260429T12Z_MSC_GDPS_RelativeHumidity_IsbL-0985_LatLon0.15_PT090H.grib2 2026-04-29 16:31 1.1M
20260429T12Z_MSC_GDPS_RelativeHumidity_IsbL-1000_LatLon0.15_PT090H.grib2 2026-04-29 16:31 1.1M
20260429T12Z_MSC_GDPS_RelativeHumidity_IsbL-1015_LatLon0.15_PT090H.grib2 2026-04-29 16:31 1.0M
20260429T12Z_MSC_GDPS_RelativeVorticity_IsbL-0200_LatLon0.15_PT090H.grib2 2026-04-29 16:31 1.5M
20260429T12Z_MSC_GDPS_RelativeVorticity_IsbL-0250_LatLon0.15_PT090H.grib2 2026-04-29 16:31 1.6M
20260429T12Z_MSC_GDPS_RelativeVorticity_IsbL-0500_LatLon0.15_PT090H.grib2 2026-04-29 16:31 1.4M
20260429T12Z_MSC_GDPS_RelativeVorticity_IsbL-0700_LatLon0.15_PT090H.grib2 2026-04-29 16:31 1.3M
20260429T12Z_MSC_GDPS_RelativeVorticity_IsbL-0850_LatLon0.15_PT090H.grib2 2026-04-29 16:31 1.6M
20260429T12Z_MSC_GDPS_Runoff-Accum_Sfc_LatLon0.15_PT090H.grib2 2026-04-29 16:31 125K
20260429T12Z_MSC_GDPS_SensibleHeatNetFlux_Sfc_LatLon0.15_PT090H.grib2 2026-04-29 16:31 655K
20260429T12Z_MSC_GDPS_ShowalterIndex_IsbL-0500_LatLon0.15_PT090H.grib2 2026-04-29 16:31 6.2M
20260429T12Z_MSC_GDPS_Snow-Accum12h_Sfc_LatLon0.15_PT090H.grib2 2026-04-29 16:31 1.5M
20260429T12Z_MSC_GDPS_Snow-Accum1h_Sfc_LatLon0.15_PT090H.grib2 2026-04-29 16:31 1.1M
20260429T12Z_MSC_GDPS_Snow-Accum24h_Sfc_LatLon0.15_PT090H.grib2 2026-04-29 16:31 1.5M
20260429T12Z_MSC_GDPS_Snow-Accum3h_Sfc_LatLon0.15_PT090H.grib2 2026-04-29 16:31 1.1M
20260429T12Z_MSC_GDPS_Snow-Accum6h_Sfc_LatLon0.15_PT090H.grib2 2026-04-29 16:31 1.5M
20260429T12Z_MSC_GDPS_Snow-Accum_Sfc_LatLon0.15_PT090H.grib2 2026-04-29 16:31 2.0M
20260429T12Z_MSC_GDPS_SnowDensity_Sfc_LatLon0.15_PT090H.grib2 2026-04-29 16:31 267K
20260429T12Z_MSC_GDPS_SnowDepth_Sfc_LatLon0.15_PT090H.grib2 2026-04-29 16:31 1.7M
20260429T12Z_MSC_GDPS_SoilTemp_DBS-0to10cm_LatLon0.15_PT090H.grib2 2026-04-29 16:31 509K
20260429T12Z_MSC_GDPS_SoilTemp_Sfc_LatLon0.15_PT090H.grib2 2026-04-29 16:31 581K
20260429T12Z_MSC_GDPS_SoilVolumetricIceContent_Sfc_LatLon0.15_PT090H.grib2 2026-04-29 16:31 199K
20260429T12Z_MSC_GDPS_SoilVolumetricWaterContent_DBS-0to10cm_LatLon0.15_PT090H.grib2 2026-04-29 16:31 587K
20260429T12Z_MSC_GDPS_SoilVolumetricWaterContent_DBS-0to1cm_LatLon0.15_PT090H.grib2 2026-04-29 16:31 652K
20260429T12Z_MSC_GDPS_SpecificHumidity_AGL-120m_LatLon0.15_PT090H.grib2 2026-04-29 16:31 1.1M
20260429T12Z_MSC_GDPS_SpecificHumidity_AGL-2m_LatLon0.15_PT090H.grib2 2026-04-29 16:31 1.2M
20260429T12Z_MSC_GDPS_SpecificHumidity_AGL-40m_LatLon0.15_PT090H.grib2 2026-04-29 16:31 1.1M
20260429T12Z_MSC_GDPS_SpecificHumidity_AGL-80m_LatLon0.15_PT090H.grib2 2026-04-29 16:31 1.1M
20260429T12Z_MSC_GDPS_SpecificHumidity_IsbL-0001_LatLon0.15_PT090H.grib2 2026-04-29 16:31 1.3M
20260429T12Z_MSC_GDPS_SpecificHumidity_IsbL-0005_LatLon0.15_PT090H.grib2 2026-04-29 16:31 1.2M
20260429T12Z_MSC_GDPS_SpecificHumidity_IsbL-0010_LatLon0.15_PT090H.grib2 2026-04-29 16:31 1.3M
20260429T12Z_MSC_GDPS_SpecificHumidity_IsbL-0020_LatLon0.15_PT090H.grib2 2026-04-29 16:31 1.3M
20260429T12Z_MSC_GDPS_SpecificHumidity_IsbL-0030_LatLon0.15_PT090H.grib2 2026-04-29 16:31 1.3M
20260429T12Z_MSC_GDPS_SpecificHumidity_IsbL-0050_LatLon0.15_PT090H.grib2 2026-04-29 16:31 1.6M
20260429T12Z_MSC_GDPS_SpecificHumidity_IsbL-0100_LatLon0.15_PT090H.grib2 2026-04-29 16:31 1.3M
20260429T12Z_MSC_GDPS_SpecificHumidity_IsbL-0150_LatLon0.15_PT090H.grib2 2026-04-29 16:31 1.3M
20260429T12Z_MSC_GDPS_SpecificHumidity_IsbL-0175_LatLon0.15_PT090H.grib2 2026-04-29 16:31 1.3M
20260429T12Z_MSC_GDPS_SpecificHumidity_IsbL-0200_LatLon0.15_PT090H.grib2 2026-04-29 16:31 1.3M
20260429T12Z_MSC_GDPS_SpecificHumidity_IsbL-0225_LatLon0.15_PT090H.grib2 2026-04-29 16:31 1.3M
20260429T12Z_MSC_GDPS_SpecificHumidity_IsbL-0250_LatLon0.15_PT090H.grib2 2026-04-29 16:31 1.4M
20260429T12Z_MSC_GDPS_SpecificHumidity_IsbL-0275_LatLon0.15_PT090H.grib2 2026-04-29 16:31 1.3M
20260429T12Z_MSC_GDPS_SpecificHumidity_IsbL-0300_LatLon0.15_PT090H.grib2 2026-04-29 16:31 1.2M
20260429T12Z_MSC_GDPS_SpecificHumidity_IsbL-0350_LatLon0.15_PT090H.grib2 2026-04-29 16:31 1.2M
20260429T12Z_MSC_GDPS_SpecificHumidity_IsbL-0400_LatLon0.15_PT090H.grib2 2026-04-29 16:31 1.5M
20260429T12Z_MSC_GDPS_SpecificHumidity_IsbL-0450_LatLon0.15_PT090H.grib2 2026-04-29 16:31 1.6M
20260429T12Z_MSC_GDPS_SpecificHumidity_IsbL-0500_LatLon0.15_PT090H.grib2 2026-04-29 16:31 1.4M
20260429T12Z_MSC_GDPS_SpecificHumidity_IsbL-0550_LatLon0.15_PT090H.grib2 2026-04-29 16:31 1.6M
20260429T12Z_MSC_GDPS_SpecificHumidity_IsbL-0600_LatLon0.15_PT090H.grib2 2026-04-29 16:31 1.7M
20260429T12Z_MSC_GDPS_SpecificHumidity_IsbL-0650_LatLon0.15_PT090H.grib2 2026-04-29 16:31 1.5M
20260429T12Z_MSC_GDPS_SpecificHumidity_IsbL-0700_LatLon0.15_PT090H.grib2 2026-04-29 16:31 1.6M
20260429T12Z_MSC_GDPS_SpecificHumidity_IsbL-0750_LatLon0.15_PT090H.grib2 2026-04-29 16:31 1.7M
20260429T12Z_MSC_GDPS_SpecificHumidity_IsbL-0800_LatLon0.15_PT090H.grib2 2026-04-29 16:31 1.8M
20260429T12Z_MSC_GDPS_SpecificHumidity_IsbL-0850_LatLon0.15_PT090H.grib2 2026-04-29 16:31 1.9M
20260429T12Z_MSC_GDPS_SpecificHumidity_IsbL-0875_LatLon0.15_PT090H.grib2 2026-04-29 16:31 1.9M
20260429T12Z_MSC_GDPS_SpecificHumidity_IsbL-0900_LatLon0.15_PT090H.grib2 2026-04-29 16:31 1.6M
20260429T12Z_MSC_GDPS_SpecificHumidity_IsbL-0925_LatLon0.15_PT090H.grib2 2026-04-29 16:31 1.6M
20260429T12Z_MSC_GDPS_SpecificHumidity_IsbL-0950_LatLon0.15_PT090H.grib2 2026-04-29 16:31 1.6M
20260429T12Z_MSC_GDPS_SpecificHumidity_IsbL-0970_LatLon0.15_PT090H.grib2 2026-04-29 16:31 1.5M
20260429T12Z_MSC_GDPS_SpecificHumidity_IsbL-0985_LatLon0.15_PT090H.grib2 2026-04-29 16:31 1.5M
20260429T12Z_MSC_GDPS_SpecificHumidity_IsbL-1000_LatLon0.15_PT090H.grib2 2026-04-29 16:31 1.5M
20260429T12Z_MSC_GDPS_SpecificHumidity_IsbL-1015_LatLon0.15_PT090H.grib2 2026-04-29 16:31 1.4M
20260429T12Z_MSC_GDPS_SpecificHumidity_Sfc_LatLon0.15_PT090H.grib2 2026-04-29 16:31 585K
20260429T12Z_MSC_GDPS_Thickness_IsbL-0850to0700_LatLon0.15_PT090H.grib2 2026-04-29 16:31 467K
20260429T12Z_MSC_GDPS_Thickness_IsbL-1000to0500_LatLon0.15_PT090H.grib2 2026-04-29 16:31 372K
20260429T12Z_MSC_GDPS_Thickness_IsbL-1000to0850_LatLon0.15_PT090H.grib2 2026-04-29 16:31 490K
20260429T12Z_MSC_GDPS_TotalCloudCover_Sfc_LatLon0.15_PT090H.grib2 2026-04-29 16:31 821K
20260429T12Z_MSC_GDPS_TotalTotalsIndex_Sfc_LatLon0.15_PT090H.grib2 2026-04-29 16:31 6.2M
20260429T12Z_MSC_GDPS_UVIndex-ClearSky_Sfc_LatLon0.15_PT090H.grib2 2026-04-29 16:51 1.1M
20260429T12Z_MSC_GDPS_UVIndex_Sfc_LatLon0.15_PT090H.grib2 2026-04-29 16:51 1.5M
20260429T12Z_MSC_GDPS_UpwardLongwaveRadiationFlux_NTAtm_LatLon0.15_PT090H.grib2 2026-04-29 16:31 838K
20260429T12Z_MSC_GDPS_VerticalVelocity_IsbL-0200_LatLon0.15_PT090H.grib2 2026-04-29 16:31 1.2M
20260429T12Z_MSC_GDPS_VerticalVelocity_IsbL-0250_LatLon0.15_PT090H.grib2 2026-04-29 16:31 1.0M
20260429T12Z_MSC_GDPS_VerticalVelocity_IsbL-0500_LatLon0.15_PT090H.grib2 2026-04-29 16:31 1.3M
20260429T12Z_MSC_GDPS_VerticalVelocity_IsbL-0600_LatLon0.15_PT090H.grib2 2026-04-29 16:31 1.1M
20260429T12Z_MSC_GDPS_VerticalVelocity_IsbL-0700_LatLon0.15_PT090H.grib2 2026-04-29 16:31 1.1M
20260429T12Z_MSC_GDPS_VerticalVelocity_IsbL-0850_LatLon0.15_PT090H.grib2 2026-04-29 16:31 1.6M
20260429T12Z_MSC_GDPS_WindChill_Sfc_LatLon0.15_PT090H.grib2 2026-04-29 16:31 5.3M
20260429T12Z_MSC_GDPS_WindDir_AGL-10m_LatLon0.15_PT090H.grib2 2026-04-29 16:31 1.3M
20260429T12Z_MSC_GDPS_WindDir_AGL-120m_LatLon0.15_PT090H.grib2 2026-04-29 16:31 1.3M
20260429T12Z_MSC_GDPS_WindDir_AGL-40m_LatLon0.15_PT090H.grib2 2026-04-29 16:31 1.4M
20260429T12Z_MSC_GDPS_WindDir_AGL-80m_LatLon0.15_PT090H.grib2 2026-04-29 16:31 1.4M
20260429T12Z_MSC_GDPS_WindDir_IsbL-0001_LatLon0.15_PT090H.grib2 2026-04-29 16:31 686K
20260429T12Z_MSC_GDPS_WindDir_IsbL-0005_LatLon0.15_PT090H.grib2 2026-04-29 16:31 816K
20260429T12Z_MSC_GDPS_WindDir_IsbL-0010_LatLon0.15_PT090H.grib2 2026-04-29 16:31 843K
20260429T12Z_MSC_GDPS_WindDir_IsbL-0020_LatLon0.15_PT090H.grib2 2026-04-29 16:31 949K
20260429T12Z_MSC_GDPS_WindDir_IsbL-0030_LatLon0.15_PT090H.grib2 2026-04-29 16:31 936K
20260429T12Z_MSC_GDPS_WindDir_IsbL-0050_LatLon0.15_PT090H.grib2 2026-04-29 16:31 959K
20260429T12Z_MSC_GDPS_WindDir_IsbL-0100_LatLon0.15_PT090H.grib2 2026-04-29 16:31 1.0M
20260429T12Z_MSC_GDPS_WindDir_IsbL-0150_LatLon0.15_PT090H.grib2 2026-04-29 16:31 1.0M
20260429T12Z_MSC_GDPS_WindDir_IsbL-0175_LatLon0.15_PT090H.grib2 2026-04-29 16:31 1.1M
20260429T12Z_MSC_GDPS_WindDir_IsbL-0200_LatLon0.15_PT090H.grib2 2026-04-29 16:31 1.1M
20260429T12Z_MSC_GDPS_WindDir_IsbL-0225_LatLon0.15_PT090H.grib2 2026-04-29 16:31 1.1M
20260429T12Z_MSC_GDPS_WindDir_IsbL-0250_LatLon0.15_PT090H.grib2 2026-04-29 16:31 1.1M
20260429T12Z_MSC_GDPS_WindDir_IsbL-0275_LatLon0.15_PT090H.grib2 2026-04-29 16:31 1.2M
20260429T12Z_MSC_GDPS_WindDir_IsbL-0300_LatLon0.15_PT090H.grib2 2026-04-29 16:31 1.2M
20260429T12Z_MSC_GDPS_WindDir_IsbL-0350_LatLon0.15_PT090H.grib2 2026-04-29 16:31 1.2M
20260429T12Z_MSC_GDPS_WindDir_IsbL-0400_LatLon0.15_PT090H.grib2 2026-04-29 16:31 1.3M
20260429T12Z_MSC_GDPS_WindDir_IsbL-0450_LatLon0.15_PT090H.grib2 2026-04-29 16:31 1.3M
20260429T12Z_MSC_GDPS_WindDir_IsbL-0500_LatLon0.15_PT090H.grib2 2026-04-29 16:31 1.3M
20260429T12Z_MSC_GDPS_WindDir_IsbL-0550_LatLon0.15_PT090H.grib2 2026-04-29 16:31 1.4M
20260429T12Z_MSC_GDPS_WindDir_IsbL-0600_LatLon0.15_PT090H.grib2 2026-04-29 16:31 1.4M
20260429T12Z_MSC_GDPS_WindDir_IsbL-0650_LatLon0.15_PT090H.grib2 2026-04-29 16:31 1.5M
20260429T12Z_MSC_GDPS_WindDir_IsbL-0700_LatLon0.15_PT090H.grib2 2026-04-29 16:31 1.6M
20260429T12Z_MSC_GDPS_WindDir_IsbL-0750_LatLon0.15_PT090H.grib2 2026-04-29 16:31 1.7M
20260429T12Z_MSC_GDPS_WindDir_IsbL-0800_LatLon0.15_PT090H.grib2 2026-04-29 16:31 1.8M
20260429T12Z_MSC_GDPS_WindDir_IsbL-0850_LatLon0.15_PT090H.grib2 2026-04-29 16:31 1.9M
20260429T12Z_MSC_GDPS_WindDir_IsbL-0875_LatLon0.15_PT090H.grib2 2026-04-29 16:31 1.9M
20260429T12Z_MSC_GDPS_WindDir_IsbL-0900_LatLon0.15_PT090H.grib2 2026-04-29 16:31 2.0M
20260429T12Z_MSC_GDPS_WindDir_IsbL-0925_LatLon0.15_PT090H.grib2 2026-04-29 16:31 2.0M
20260429T12Z_MSC_GDPS_WindDir_IsbL-0950_LatLon0.15_PT090H.grib2 2026-04-29 16:31 2.0M
20260429T12Z_MSC_GDPS_WindDir_IsbL-0970_LatLon0.15_PT090H.grib2 2026-04-29 16:31 2.0M
20260429T12Z_MSC_GDPS_WindDir_IsbL-0985_LatLon0.15_PT090H.grib2 2026-04-29 16:31 2.0M
20260429T12Z_MSC_GDPS_WindDir_IsbL-1000_LatLon0.15_PT090H.grib2 2026-04-29 16:31 2.0M
20260429T12Z_MSC_GDPS_WindDir_IsbL-1015_LatLon0.15_PT090H.grib2 2026-04-29 16:31 2.0M
20260429T12Z_MSC_GDPS_WindGust-Max_AGL-10m_LatLon0.15_PT090H.grib2 2026-04-29 16:31 2.2M
20260429T12Z_MSC_GDPS_WindGust-Min_AGL-10m_LatLon0.15_PT090H.grib2 2026-04-29 16:31 2.2M
20260429T12Z_MSC_GDPS_WindGust_AGL-10m_LatLon0.15_PT090H.grib2 2026-04-29 16:31 2.2M
20260429T12Z_MSC_GDPS_WindSpeed_AGL-10m_LatLon0.15_PT090H.grib2 2026-04-29 16:31 1.1M
20260429T12Z_MSC_GDPS_WindSpeed_AGL-120m_LatLon0.15_PT090H.grib2 2026-04-29 16:31 1.2M
20260429T12Z_MSC_GDPS_WindSpeed_AGL-40m_LatLon0.15_PT090H.grib2 2026-04-29 16:31 1.2M
20260429T12Z_MSC_GDPS_WindSpeed_AGL-80m_LatLon0.15_PT090H.grib2 2026-04-29 16:31 1.2M
20260429T12Z_MSC_GDPS_WindSpeed_IsbL-0001_LatLon0.15_PT090H.grib2 2026-04-29 16:31 642K
20260429T12Z_MSC_GDPS_WindSpeed_IsbL-0005_LatLon0.15_PT090H.grib2 2026-04-29 16:31 690K
20260429T12Z_MSC_GDPS_WindSpeed_IsbL-0010_LatLon0.15_PT090H.grib2 2026-04-29 16:31 623K
20260429T12Z_MSC_GDPS_WindSpeed_IsbL-0020_LatLon0.15_PT090H.grib2 2026-04-29 16:31 663K
20260429T12Z_MSC_GDPS_WindSpeed_IsbL-0030_LatLon0.15_PT090H.grib2 2026-04-29 16:31 860K
20260429T12Z_MSC_GDPS_WindSpeed_IsbL-0050_LatLon0.15_PT090H.grib2 2026-04-29 16:31 906K
20260429T12Z_MSC_GDPS_WindSpeed_IsbL-0100_LatLon0.15_PT090H.grib2 2026-04-29 16:31 1.1M
20260429T12Z_MSC_GDPS_WindSpeed_IsbL-0150_LatLon0.15_PT090H.grib2 2026-04-29 16:31 950K
20260429T12Z_MSC_GDPS_WindSpeed_IsbL-0175_LatLon0.15_PT090H.grib2 2026-04-29 16:31 1.0M
20260429T12Z_MSC_GDPS_WindSpeed_IsbL-0200_LatLon0.15_PT090H.grib2 2026-04-29 16:31 1.1M
20260429T12Z_MSC_GDPS_WindSpeed_IsbL-0225_LatLon0.15_PT090H.grib2 2026-04-29 16:31 1.1M
20260429T12Z_MSC_GDPS_WindSpeed_IsbL-0250_LatLon0.15_PT090H.grib2 2026-04-29 16:31 1.1M
20260429T12Z_MSC_GDPS_WindSpeed_IsbL-0275_LatLon0.15_PT090H.grib2 2026-04-29 16:31 1.1M
20260429T12Z_MSC_GDPS_WindSpeed_IsbL-0300_LatLon0.15_PT090H.grib2 2026-04-29 16:31 1.1M
20260429T12Z_MSC_GDPS_WindSpeed_IsbL-0350_LatLon0.15_PT090H.grib2 2026-04-29 16:31 1.1M
20260429T12Z_MSC_GDPS_WindSpeed_IsbL-0400_LatLon0.15_PT090H.grib2 2026-04-29 16:31 1.1M
20260429T12Z_MSC_GDPS_WindSpeed_IsbL-0450_LatLon0.15_PT090H.grib2 2026-04-29 16:31 1.1M
20260429T12Z_MSC_GDPS_WindSpeed_IsbL-0500_LatLon0.15_PT090H.grib2 2026-04-29 16:31 1.1M
20260429T12Z_MSC_GDPS_WindSpeed_IsbL-0550_LatLon0.15_PT090H.grib2 2026-04-29 16:31 1.1M
20260429T12Z_MSC_GDPS_WindSpeed_IsbL-0600_LatLon0.15_PT090H.grib2 2026-04-29 16:31 1.4M
20260429T12Z_MSC_GDPS_WindSpeed_IsbL-0650_LatLon0.15_PT090H.grib2 2026-04-29 16:31 1.4M
20260429T12Z_MSC_GDPS_WindSpeed_IsbL-0700_LatLon0.15_PT090H.grib2 2026-04-29 16:31 1.5M
20260429T12Z_MSC_GDPS_WindSpeed_IsbL-0750_LatLon0.15_PT090H.grib2 2026-04-29 16:31 1.5M
20260429T12Z_MSC_GDPS_WindSpeed_IsbL-0800_LatLon0.15_PT090H.grib2 2026-04-29 16:31 1.6M
20260429T12Z_MSC_GDPS_WindSpeed_IsbL-0850_LatLon0.15_PT090H.grib2 2026-04-29 16:31 1.7M
20260429T12Z_MSC_GDPS_WindSpeed_IsbL-0875_LatLon0.15_PT090H.grib2 2026-04-29 16:31 1.8M
20260429T12Z_MSC_GDPS_WindSpeed_IsbL-0900_LatLon0.15_PT090H.grib2 2026-04-29 16:31 1.8M
20260429T12Z_MSC_GDPS_WindSpeed_IsbL-0925_LatLon0.15_PT090H.grib2 2026-04-29 16:31 1.8M
20260429T12Z_MSC_GDPS_WindSpeed_IsbL-0950_LatLon0.15_PT090H.grib2 2026-04-29 16:31 1.9M
20260429T12Z_MSC_GDPS_WindSpeed_IsbL-0970_LatLon0.15_PT090H.grib2 2026-04-29 16:31 1.9M
20260429T12Z_MSC_GDPS_WindSpeed_IsbL-0985_LatLon0.15_PT090H.grib2 2026-04-29 16:31 1.8M
20260429T12Z_MSC_GDPS_WindSpeed_IsbL-1000_LatLon0.15_PT090H.grib2 2026-04-29 16:31 1.8M
20260429T12Z_MSC_GDPS_WindSpeed_IsbL-1015_LatLon0.15_PT090H.grib2 2026-04-29 16:31 1.8M
20260429T12Z_MSC_GDPS_WindU_AGL-10m_LatLon0.15_PT090H.grib2 2026-04-29 16:31 1.3M
20260429T12Z_MSC_GDPS_WindU_AGL-120m_LatLon0.15_PT090H.grib2 2026-04-29 16:31 968K
20260429T12Z_MSC_GDPS_WindU_AGL-40m_LatLon0.15_PT090H.grib2 2026-04-29 16:31 962K
20260429T12Z_MSC_GDPS_WindU_AGL-80m_LatLon0.15_PT090H.grib2 2026-04-29 16:31 967K
20260429T12Z_MSC_GDPS_WindU_IsbL-0001_LatLon0.15_PT090H.grib2 2026-04-29 16:31 500K
20260429T12Z_MSC_GDPS_WindU_IsbL-0005_LatLon0.15_PT090H.grib2 2026-04-29 16:31 686K
20260429T12Z_MSC_GDPS_WindU_IsbL-0010_LatLon0.15_PT090H.grib2 2026-04-29 16:31 698K
20260429T12Z_MSC_GDPS_WindU_IsbL-0020_LatLon0.15_PT090H.grib2 2026-04-29 16:31 730K
20260429T12Z_MSC_GDPS_WindU_IsbL-0030_LatLon0.15_PT090H.grib2 2026-04-29 16:31 736K
20260429T12Z_MSC_GDPS_WindU_IsbL-0050_LatLon0.15_PT090H.grib2 2026-04-29 16:31 767K
20260429T12Z_MSC_GDPS_WindU_IsbL-0100_LatLon0.15_PT090H.grib2 2026-04-29 16:31 918K
20260429T12Z_MSC_GDPS_WindU_IsbL-0150_LatLon0.15_PT090H.grib2 2026-04-29 16:31 1.0M
20260429T12Z_MSC_GDPS_WindU_IsbL-0175_LatLon0.15_PT090H.grib2 2026-04-29 16:31 1.0M
20260429T12Z_MSC_GDPS_WindU_IsbL-0200_LatLon0.15_PT090H.grib2 2026-04-29 16:31 842K
20260429T12Z_MSC_GDPS_WindU_IsbL-0225_LatLon0.15_PT090H.grib2 2026-04-29 16:31 852K
20260429T12Z_MSC_GDPS_WindU_IsbL-0250_LatLon0.15_PT090H.grib2 2026-04-29 16:31 855K
20260429T12Z_MSC_GDPS_WindU_IsbL-0275_LatLon0.15_PT090H.grib2 2026-04-29 16:31 882K
20260429T12Z_MSC_GDPS_WindU_IsbL-0300_LatLon0.15_PT090H.grib2 2026-04-29 16:31 873K
20260429T12Z_MSC_GDPS_WindU_IsbL-0350_LatLon0.15_PT090H.grib2 2026-04-29 16:31 889K
20260429T12Z_MSC_GDPS_WindU_IsbL-0400_LatLon0.15_PT090H.grib2 2026-04-29 16:31 1.1M
20260429T12Z_MSC_GDPS_WindU_IsbL-0450_LatLon0.15_PT090H.grib2 2026-04-29 16:31 1.1M
20260429T12Z_MSC_GDPS_WindU_IsbL-0500_LatLon0.15_PT090H.grib2 2026-04-29 16:31 1.1M
20260429T12Z_MSC_GDPS_WindU_IsbL-0550_LatLon0.15_PT090H.grib2 2026-04-29 16:31 1.1M
20260429T12Z_MSC_GDPS_WindU_IsbL-0600_LatLon0.15_PT090H.grib2 2026-04-29 16:31 1.1M
20260429T12Z_MSC_GDPS_WindU_IsbL-0650_LatLon0.15_PT090H.grib2 2026-04-29 16:31 1.2M
20260429T12Z_MSC_GDPS_WindU_IsbL-0700_LatLon0.15_PT090H.grib2 2026-04-29 16:31 1.2M
20260429T12Z_MSC_GDPS_WindU_IsbL-0750_LatLon0.15_PT090H.grib2 2026-04-29 16:31 1.3M
20260429T12Z_MSC_GDPS_WindU_IsbL-0800_LatLon0.15_PT090H.grib2 2026-04-29 16:31 1.3M
20260429T12Z_MSC_GDPS_WindU_IsbL-0850_LatLon0.15_PT090H.grib2 2026-04-29 16:31 1.4M
20260429T12Z_MSC_GDPS_WindU_IsbL-0875_LatLon0.15_PT090H.grib2 2026-04-29 16:31 1.5M
20260429T12Z_MSC_GDPS_WindU_IsbL-0900_LatLon0.15_PT090H.grib2 2026-04-29 16:31 1.5M
20260429T12Z_MSC_GDPS_WindU_IsbL-0925_LatLon0.15_PT090H.grib2 2026-04-29 16:31 1.5M
20260429T12Z_MSC_GDPS_WindU_IsbL-0950_LatLon0.15_PT090H.grib2 2026-04-29 16:31 1.4M
20260429T12Z_MSC_GDPS_WindU_IsbL-0970_LatLon0.15_PT090H.grib2 2026-04-29 16:31 1.4M
20260429T12Z_MSC_GDPS_WindU_IsbL-0985_LatLon0.15_PT090H.grib2 2026-04-29 16:31 1.4M
20260429T12Z_MSC_GDPS_WindU_IsbL-1000_LatLon0.15_PT090H.grib2 2026-04-29 16:31 1.4M
20260429T12Z_MSC_GDPS_WindU_IsbL-1015_LatLon0.15_PT090H.grib2 2026-04-29 16:31 1.3M
20260429T12Z_MSC_GDPS_WindV_AGL-10m_LatLon0.15_PT090H.grib2 2026-04-29 16:31 1.3M
20260429T12Z_MSC_GDPS_WindV_AGL-120m_LatLon0.15_PT090H.grib2 2026-04-29 16:31 966K
20260429T12Z_MSC_GDPS_WindV_AGL-40m_LatLon0.15_PT090H.grib2 2026-04-29 16:31 960K
20260429T12Z_MSC_GDPS_WindV_AGL-80m_LatLon0.15_PT090H.grib2 2026-04-29 16:31 966K
20260429T12Z_MSC_GDPS_WindV_IsbL-0001_LatLon0.15_PT090H.grib2 2026-04-29 16:31 710K
20260429T12Z_MSC_GDPS_WindV_IsbL-0005_LatLon0.15_PT090H.grib2 2026-04-29 16:31 855K
20260429T12Z_MSC_GDPS_WindV_IsbL-0010_LatLon0.15_PT090H.grib2 2026-04-29 16:31 880K
20260429T12Z_MSC_GDPS_WindV_IsbL-0020_LatLon0.15_PT090H.grib2 2026-04-29 16:31 932K
20260429T12Z_MSC_GDPS_WindV_IsbL-0030_LatLon0.15_PT090H.grib2 2026-04-29 16:31 935K
20260429T12Z_MSC_GDPS_WindV_IsbL-0050_LatLon0.15_PT090H.grib2 2026-04-29 16:31 1.0M
20260429T12Z_MSC_GDPS_WindV_IsbL-0100_LatLon0.15_PT090H.grib2 2026-04-29 16:31 1.1M
20260429T12Z_MSC_GDPS_WindV_IsbL-0150_LatLon0.15_PT090H.grib2 2026-04-29 16:31 1.0M
20260429T12Z_MSC_GDPS_WindV_IsbL-0175_LatLon0.15_PT090H.grib2 2026-04-29 16:31 1.0M
20260429T12Z_MSC_GDPS_WindV_IsbL-0200_LatLon0.15_PT090H.grib2 2026-04-29 16:31 1.0M
20260429T12Z_MSC_GDPS_WindV_IsbL-0225_LatLon0.15_PT090H.grib2 2026-04-29 16:31 848K
20260429T12Z_MSC_GDPS_WindV_IsbL-0250_LatLon0.15_PT090H.grib2 2026-04-29 16:31 847K
20260429T12Z_MSC_GDPS_WindV_IsbL-0275_LatLon0.15_PT090H.grib2 2026-04-29 16:31 873K
20260429T12Z_MSC_GDPS_WindV_IsbL-0300_LatLon0.15_PT090H.grib2 2026-04-29 16:31 920K
20260429T12Z_MSC_GDPS_WindV_IsbL-0350_LatLon0.15_PT090H.grib2 2026-04-29 16:31 875K
20260429T12Z_MSC_GDPS_WindV_IsbL-0400_LatLon0.15_PT090H.grib2 2026-04-29 16:31 878K
20260429T12Z_MSC_GDPS_WindV_IsbL-0450_LatLon0.15_PT090H.grib2 2026-04-29 16:31 882K
20260429T12Z_MSC_GDPS_WindV_IsbL-0500_LatLon0.15_PT090H.grib2 2026-04-29 16:31 1.1M
20260429T12Z_MSC_GDPS_WindV_IsbL-0550_LatLon0.15_PT090H.grib2 2026-04-29 16:31 1.1M
20260429T12Z_MSC_GDPS_WindV_IsbL-0600_LatLon0.15_PT090H.grib2 2026-04-29 16:31 1.1M
20260429T12Z_MSC_GDPS_WindV_IsbL-0650_LatLon0.15_PT090H.grib2 2026-04-29 16:31 1.2M
20260429T12Z_MSC_GDPS_WindV_IsbL-0700_LatLon0.15_PT090H.grib2 2026-04-29 16:31 1.2M
20260429T12Z_MSC_GDPS_WindV_IsbL-0750_LatLon0.15_PT090H.grib2 2026-04-29 16:31 1.3M
20260429T12Z_MSC_GDPS_WindV_IsbL-0800_LatLon0.15_PT090H.grib2 2026-04-29 16:31 1.3M
20260429T12Z_MSC_GDPS_WindV_IsbL-0850_LatLon0.15_PT090H.grib2 2026-04-29 16:31 1.4M
20260429T12Z_MSC_GDPS_WindV_IsbL-0875_LatLon0.15_PT090H.grib2 2026-04-29 16:31 1.4M
20260429T12Z_MSC_GDPS_WindV_IsbL-0900_LatLon0.15_PT090H.grib2 2026-04-29 16:31 1.4M
20260429T12Z_MSC_GDPS_WindV_IsbL-0925_LatLon0.15_PT090H.grib2 2026-04-29 16:31 1.4M
20260429T12Z_MSC_GDPS_WindV_IsbL-0950_LatLon0.15_PT090H.grib2 2026-04-29 16:31 1.4M
20260429T12Z_MSC_GDPS_WindV_IsbL-0970_LatLon0.15_PT090H.grib2 2026-04-29 16:31 1.4M
20260429T12Z_MSC_GDPS_WindV_IsbL-0985_LatLon0.15_PT090H.grib2 2026-04-29 16:31 1.4M
20260429T12Z_MSC_GDPS_WindV_IsbL-1000_LatLon0.15_PT090H.grib2 2026-04-29 16:31 1.4M
20260429T12Z_MSC_GDPS_WindV_IsbL-1015_LatLon0.15_PT090H.grib2 2026-04-29 16:31 1.3M